Atlantic - Newfoundland: Past 24 Hour Conditions

 

Charlottetown Airport

02:00 AM ADT 20 September 2014
This table is a summary of hourly weather conditions for the past 24 hours.
Date / Time
(ADT)
Wind(knots) Conditions Visibility(km) Pressure(kPa) Air tempC) Relative humidity(%) Dew pointC)
20 September 2014
2:00 WSW 6 Clear 24 102.8 5 58 -3
1:00 WSW 4 Clear 24 102.8 5 63 -2
0:00 SW 5 Clear 24 102.8 5 59 -2
19 September 2014
23:00 WSW 5 Clear 24 102.8 5 55 -3
22:00 W 6 Clear 24 102.8 5 57 -3
21:00 WSW 6 Clear 24 102.7 6 59 -2
20:00 W 4 Mainly Clear 24 102.6 6 55 -2
19:00 WNW 5 Mainly Sunny 24 102.6 8 49 -2
18:00 NW 11 gust 20 Mainly Sunny 24 102.6 9 43 -3
17:00 NW 10 gust 24 Mainly Sunny 24 102.5 10 44 -2
16:00 NW 17 gust 23 Partly Cloudy 24 102.5 10 44 -2
15:00 NNW 11 gust 28 Partly Cloudy 24 102.4 11 48 0
14:00 NNW 16 gust 28 Mostly Cloudy 24 102.3 10 54 1
13:00 NW 11 gust 18 Light Rainshower 24 102.2 8 76 4
12:00 WNW 19 gust 31 Heavy Rainshower 16 102.2 8 61 1
11:00 WNW 14 gust 21 Partly Cloudy 24 102.2 9 61 2
10:00 WNW 11 gust 20 Mainly Sunny 24 102.1 8 65 2
9:00 WNW 12 gust 18 Mainly Sunny 24 102.0 7 70 2
8:00 WNW 10 Mainly Sunny 24 102.0 5 77 2
7:00 W 7 Mainly Sunny 24 101.9 4 80 1
6:00 W 9 Mainly Clear 24 101.8 5 72 0
5:00 W 8 Mainly Clear 24 101.7 5 65 -1
4:00 W 8 Mainly Clear 24 101.7 6 68 1
3:00 WNW 8 Partly Cloudy 24 101.6 6 74 2
2:00 NW 3 Partly Cloudy 24 101.6 6 79 3
 
Map of Atlantic - Newfoundland marine weather areas Southwestern Grand Banks - 44138 Banquereau - 44139 Tail of the Bank - 44140 Nickerson Bank - 44251 Northeast Burgeo Bank - 44255 Blanc-Sablon Airport Cap Whittle Chevery Natashquan Airport Heath Point Miscou Island Grand Étang Ingonish Beach North Mountain St.Paul Island J.A. Douglas McCurdy Sydney Airport Charlottetown Airport East Point North Cape Argentia Bonavista Burgeo Cape Race Corner Brook Daniel's Harbour Englee Ferolle Point La Scie Port aux Basques Rocky Harbour Sagona Island St. Anthony Airport St. John's Int'l Airport St. Lawrence Stephenville Airport Twillingate Winterland Wreckhouse Cartwright Airport Mary's Harbour Grates Cove Pool's Island Marticot Island Long Pond Îles de la Madeleine Airport
Legend: buoyBuoy land stationLand Station